Regional Weather Roundup
Issued by NWS Midland/Odessa, TX

Skip options and go directly to product.
Home | Oldest Version | Previous Version | Current Version | All | Text Only | Save Text | Print | Product List | Glossary On

Skip product version selection by date and time.   
249
ASUS44 KMAF 231310
RWRMAF
MIDLAND AREA WEATHER ROUNDUP
NATIONAL WEATHER SERVICE MIDLAND TX
800 AM CDT THU OCT 23 2014

...IN SOUTHWEST TEXAS AND SOUTHEAST NEW MEXICO...

CITY           SKY/WX    TMP DP  RH WIND       PRES   REMARKS
ALPINE         CLEAR     57  55  95 SW7       30.26R
ANDREWS        FOG       54  54 100 CALM      30.15R VSB 1/4
ARTESIA        NOT AVBL
BIG SPRING     CLOUDY    61  58  90 S7        30.16R
CARLSBAD       FOG       59  57  93 E3        30.12R VSB 1/4
DRYDEN           N/A     63  60  90 W3        30.12R
FORT STOCKTON  CLEAR     59  57  93 SW12      30.12S
GUAD PASS      FOG       55  54  96 SW14      30.24R VSB<1/4
HOBBS          FOG       55  55 100 S3        30.15R VSB 0
MARFA          CLOUDY    57  55  94 CALM      30.24S
MIDLAND AIRPK  CLOUDY    61  61 100 S9        30.14R
MIDLAND INTL   CLOUDY    59  58  96 S12       30.13R FOG
ODESSA         FOG       57  56  96 S9        30.14R VSB 1/2
PECOS          FOG       57  56  97 CALM      30.12R VSB 1/4
PRESIDIO       FAIR      61  58  91 CALM      30.15R
SEMINOLE       FOG       56  55  99 CALM      30.16R VSB 1/4
SNYDER         CLOUDY    57  56  95 SW7       30.14R
WINK           CLOUDY    57  56  96 NE3       30.12R
$$
...OTHER STATIONS IN TEXAS...

CITY           SKY/WX    TMP DP  RH WIND       PRES   REMARKS
ABILENE        MOCLDY    60  55  83 S7        30.13R
AMARILLO       CLOUDY    60  57  89 SW9       30.12S
AUSTIN         MOCLDY    65  62  90 CALM      30.12R
BROWNSVILLE    PTCLDY    69  67  93 NW5       30.03R
CORPUS CHRISTI MOCLDY    66  63  90 N8        30.07R
DALLAS FTW     CLOUDY    63  55  75 SE5       30.13S
DEL RIO        CLOUDY    64  62  93 NE5       30.10R
EL PASO        CLEAR     58  53  84 CALM      30.16R
HOUSTON INT    CLOUDY    61  55  81 VRB5      30.10R
LUBBOCK        PTCLDY    51  49  92 SW3       30.13R FOG
SAN ANGELO     CLEAR     53  51  93 CALM      30.13S
SAN ANTONIO    CLOUDY    68  65  90 CALM      30.12R
WACO           MOCLDY    63  58  83 CALM      30.13S
WICHITA FALLS  NOT AVBL
$$
...OTHER LOCATIONS IN NEW MEXICO...

CITY           SKY/WX    TMP DP  RH WIND       PRES   REMARKS
ALAMAGORDO     NOT AVBL
ALBUQUERQUE    CLEAR     52  43  71 CALM      30.24R
CANNON AFB     MOCLDY    57  55  94 W10       30.15R FOG
CLOVIS         CLOUDY    57  54  88 W9        30.17R
HOLLOMAN AFB   CLEAR     50  47  91 NE6       30.18R
ROSWELL        FOG       56  55  97 CALM      30.14R VSB 1/2
RUIDOSO        CLEAR     48  41  76 W8        30.30R
SANTA FE       CLEAR     41  34  76 N6        30.27R WCI  37
TRUTH OR CONSE NOT AVBL
TUCUMCARI      CLEAR     51  49  92 W6        30.12R
$$

USA.gov is the U.S. government's official web portal to all federal, state and local government web resources and services.